Vertical_Velocity
-2 -2 -1 -2 -5 2 7 5 10 6 6 3 1 -1 0 3 4 5 0 -1 -4 -5
1 2 0 0 -2 -4 -10 -11 -11 -7 -2 -7 0 -3 1 2 -1 4 2 1 -0 -2
-3 1 3 3 4 2 1 7 3 1 0 1 -1 1 0 -2 0 1 -0 -1 -2 -4
-4 -1 2 0 1 2 0 -1 -2 -2 -0 -3 -2 -2 -0 3 2 1 2 2 2 2
-7 -6 -3 1 0 3 4 4 2 1 1 3 3 1 -0 1 -3 0 2 3 3 3
-4 -7 -6 1 0 1 -0 -2 -0 0 -2 -0 1 0 0 -0 1 2 2 2 4 3
-3 -6 -3 -1 -0 -1 3 -0 1 -1 -1 3 -4 -4 -3 1 1 4 2 4 7 7
-1 -4 -2 -2 -1 -2 0 -0 -2 1 -1 -10 -9 -7 -4 -1 1 1 3 3 6 4
-0 -0 1 0 2 1 1 0 0 -3 -2 -7 -5 -6 -9 -6 1 3 5 1 3 1
-0 1 -2 -2 2 1 3 2 -0 1 -1 -2 1 -1 -3 -6 -1 -2 0 1 -0 3
-0 2 2 2 1 3 3 1 -0 1 0 -1 -3 -1 -2 -3 -6 -3 -1 -0 -4 -4
1 2 2 2 3 3 2 -3 -2 -1 -2 -4 1 -2 -2 -3 -0 -1 -2 -1 -1 1
1 1 1 4 -1 -0 -2 -3 -3 -4 -3 -3 -0 -2 0 0 -1 -1 -1 -4 -3 2
-3 -3 -1 1 -1 0 -3 0 -1 -3 -4 -5 -2 -4 1 -1 -1 -0 1 3 -0 6
Height
5721 5719 5716 5713 5712 5710 5708 5707 5707 5705 5704 5701 5701 5701 5699 5700 5700 5698 5698 5698 5698 5698
5706 5705 5702 5699 5697 5694 5693 5692 5691 5691 5690 5689 5688 5688 5687 5687 5686 5685 5684 5684 5685 5684
5695 5693 5690 5687 5684 5683 5681 5678 5677 5675 5674 5673 5673 5672 5671 5671 5670 5669 5668 5669 5669 5670
5683 5680 5677 5674 5670 5667 5664 5663 5660 5658 5657 5655 5654 5653 5652 5651 5651 5650 5649 5649 5650 5650
5671 5667 5663 5659 5656 5652 5649 5646 5644 5641 5640 5637 5635 5633 5631 5631 5630 5630 5629 5629 5630 5630
5656 5652 5648 5645 5641 5638 5635 5632 5629 5626 5622 5620 5617 5615 5613 5611 5609 5608 5608 5608 5609 5611
5638 5636 5633 5630 5628 5624 5621 5618 5614 5611 5608 5605 5600 5595 5590 5588 5587 5586 5584 5585 5587 5590
5623 5619 5617 5615 5612 5610 5607 5604 5601 5598 5594 5590 5586 5580 5576 5574 5571 5568 5566 5566 5567 5569
5608 5605 5603 5602 5600 5598 5595 5593 5590 5586 5581 5577 5573 5567 5561 5557 5555 5550 5550 5551 5552 5554
5595 5593 5591 5589 5587 5586 5584 5581 5577 5574 5570 5565 5561 5555 5549 5543 5537 5535 5533 5535 5538 5539
5583 5581 5579 5576 5575 5573 5570 5567 5565 5561 5557 5552 5548 5543 5536 5528 5522 5518 5517 5520 5524 5526
5570 5568 5566 5564 5562 5560 5557 5554 5551 5547 5544 5540 5535 5530 5524 5516 5509 5504 5504 5507 5509 5513
5557 5555 5555 5553 5551 5548 5545 5541 5538 5534 5530 5525 5522 5517 5512 5505 5497 5493 5494 5497 5500 5501
5547 5545 5544 5542 5539 5536 5532 5528 5524 5520 5515 5511 5507 5504 5500 5494 5487 5483 5484 5487 5490 5492